Tracking 25710 objects as of 6-Jul-2022
HD Live streaming from Space Station
objects crossing your sky now

FENGYUN 1C DEB

Track FENGYUN 1C DEB now!
10-day predictions


NORAD ID: 30345
Int'l Code: 1999-025ABG
Perigee: 808.6 km
Apogee: 835.6 km
Inclination: 99.0 °
Period: 101.2 minutes
Semi major axis: 7193 km
RCS: 0.035 m2 (small)
Launch date: May 10, 1999
Source: People's Republic of China (PRC)
Launch site: Taiyaun Space Center, China (TSC)

Note: This is SATELLITE DEBRIS
aabbcc
Your satellite tracking list
Your tracking list is empty




NASA's NSSDC Master Catalog

Two Line Element Set (TLE):
1 30345U 99025ABG 22186.71328763  .00001650  00000-0  75057-3 0  9995
2 30345  98.9854 191.7324 0018709 306.0250  53.9193 14.23078507798100
Source of the keplerian elements: AFSPC